| time (UTC) | temp C | wind direction | speed KPH | gust KPH | rain 1hr cm | rain 24hr cm | rain mn cm | humidity % | barometer mb |
| 20260905234542 | 26 | 115 | 4.8 | 17.7 | 0.00 | 0.00 | 0.00 | 72 | 1012.9 |
| 20260905233042 | 26 | 120 | 9.7 | 17.7 | 0.00 | 0.00 | 0.00 | 72 | 1012.8 |
| 20260905231541 | 26 | 119 | 6.4 | 20.9 | 0.00 | 0.00 | 0.00 | 72 | 1012.7 |
| 20260905230039 | 26 | 86 | 11.3 | 25.7 | 0.00 | 0.00 | 0.00 | 71 | 1012.7 |
| 20260905224538 | 26 | 133 | 9.7 | 16.1 | 0.00 | 0.00 | 0.00 | 72 | 1012.8 |
| 20260905223037 | 26 | 132 | 8.0 | 17.7 | 0.00 | 0.00 | 0.00 | 71 | 1012.6 |
| 20260905221534 | 26 | 123 | 12.9 | 22.5 | 0.00 | 0.00 | 0.00 | 70 | 1012.6 |
| 20260905220041 | 26 | 136 | 11.3 | 20.9 | 0.00 | 0.00 | 0.00 | 71 | 1012.6 |
| 20260905214531 | 26 | 127 | 12.9 | 20.9 | 0.00 | 0.00 | 0.00 | 69 | 1012.8 |
| 20260905213039 | 26 | 140 | 9.7 | 17.7 | 0.00 | 0.00 | 0.00 | 71 | 1013.1 |
| 20260905211528 | 27 | 101 | 6.4 | 17.7 | 0.00 | 0.00 | 0.00 | 70 | 1013.4 |
| 20260905210023 | 27 | 113 | 8.0 | 12.9 | 0.00 | 0.00 | 0.00 | 69 | 1013.6 |
| 20260905204521 | 27 | 122 | 8.0 | 14.5 | 0.00 | 0.00 | 0.00 | 68 | 1013.9 |
| 20260905203021 | 28 | 148 | 4.8 | 9.7 | 0.00 | 0.00 | 0.00 | 66 | 1014.1 |
| 20260905201519 | 27 | 134 | 1.6 | 11.3 | 0.00 | 0.00 | 0.00 | 66 | 1014.3 |
| 20260905200019 | 28 | 171 | 4.8 | 11.3 | 0.00 | 0.00 | 0.00 | 64 | 1014.4 |
| 20260905194517 | 28 | 122 | 3.2 | 14.5 | 0.00 | 0.00 | 0.00 | 61 | 1014.3 |
| 20260905193015 | 28 | 186 | 4.8 | 17.7 | 0.00 | 0.00 | 0.00 | 63 | 1014.0 |
| 20260905191510 | 28 | 130 | 9.7 | 17.7 | 0.00 | 0.00 | 0.00 | 66 | 1014.0 |
| 20260905190011 | 27 | 115 | 9.7 | 12.9 | 0.00 | 0.00 | 0.00 | 67 | 1014.2 |
| 20260905184505 | 27 | 172 | 3.2 | 11.3 | 0.00 | 0.00 | 0.00 | 66 | 1014.6 |
| 20260905183001 | 27 | 128 | 3.2 | 12.9 | 0.00 | 0.00 | 0.00 | 69 | 1014.7 |
| 20260905181536 | 26 | 142 | 3.2 | 14.5 | 0.00 | 0.00 | 0.00 | 70 | 1014.6 |
| 20260905180031 | 26 | 100 | 4.8 | 11.3 | 0.00 | 0.00 | 0.00 | 71 | 1014.8 |
| 20260905174530 | 26 | 121 | 1.6 | 9.7 | 0.00 | 0.00 | 0.00 | 71 | 1014.9 |
| 20260905173026 | 26 | 147 | 0.0 | 14.5 | 0.00 | 0.00 | 0.00 | 71 | 1015.2 |
| 20260905171526 | 27 | 109 | 3.2 | 11.3 | 0.00 | 0.00 | 0.00 | 71 | 1015.1 |
| 20260905170023 | 26 | 119 | 1.6 | 11.3 | 0.00 | 0.00 | 0.00 | 72 | 1015.0 |
| 20260905164517 | 25 | 180 | 8.0 | 12.9 | 0.00 | 0.00 | 0.00 | 75 | 1014.9 |
| 20260905163013 | 25 | 123 | 6.4 | 14.5 | 0.00 | 0.00 | 0.00 | 76 | 1014.9 |
| 20260905161506 | 25 | 107 | 1.6 | 12.9 | 0.00 | 0.00 | 0.00 | 78 | 1014.8 |
| 20260905160007 | 24 | 119 | 4.8 | 11.3 | 0.00 | 0.00 | 0.00 | 79 | 1014.6 |
| 20260905154603 | 25 | 92 | 6.4 | 12.9 | 0.00 | 0.00 | 0.00 | 79 | 1014.6 |
| 20260905153059 | 23 | 111 | 1.6 | 9.7 | 0.00 | 0.00 | 0.00 | 81 | 1014.7 |
| 20260905151559 | 23 | 118 | 1.6 | 8.0 | 0.00 | 0.00 | 0.00 | 82 | 1014.9 |
| 20260905150101 | 23 | 109 | 0.0 | 6.4 | 0.00 | 0.00 | 0.00 | 83 | 1014.8 |
| 20260905144556 | 23 | 159 | 1.6 | 8.0 | 0.00 | 0.00 | 0.00 | 83 | 1014.6 |
| 20260905143026 | 23 | 148 | 1.6 | 12.9 | 0.00 | 0.00 | 0.00 | 83 | 1014.3 |
| 20260905141524 | 23 | 121 | 1.6 | 6.4 | 0.00 | 0.00 | 0.00 | 84 | 1014.1 |
| 20260905141522 | 23 | 117 | 1.6 | 6.4 | 0.00 | 0.00 | 0.00 | 84 | 1014.1 |
| 20260905140018 | 23 | 107 | 3.2 | 9.7 | 0.00 | 0.00 | 0.00 | 84 | 1014.0 |
| 20260905134522 | 23 | 142 | 3.2 | 9.7 | 0.00 | 0.00 | 0.00 | 85 | 1014.1 |
| 20260905133016 | 23 | 73 | 3.2 | 12.9 | 0.00 | 0.00 | 0.00 | 85 | 1013.8 |
| 20260905131526 | 22 | 89 | 3.2 | 11.3 | 0.00 | 0.00 | 0.00 | 87 | 1013.2 |
| 20260905130009 | 22 | 119 | 1.6 | 11.3 | 0.00 | 0.00 | 0.00 | 88 | 1013.0 |
| 20260905124510 | 22 | 128 | 4.8 | 9.7 | 0.00 | 0.00 | 0.00 | 89 | 1012.8 |
| 20260905123009 | 22 | 94 | 1.6 | 8.0 | 0.00 | 0.00 | 0.00 | 89 | 1012.8 |
| 20260905121510 | 22 | 105 | 1.6 | 11.3 | 0.00 | 0.00 | 0.00 | 89 | 1012.8 |
| 20260905120038 | 22 | 142 | 3.2 | 9.7 | 0.00 | 0.00 | 0.00 | 90 | 1012.9 |
| 20260905114544 | 21 | 66 | 1.6 | 6.4 | 0.00 | 0.00 | 0.00 | 90 | 1012.8 |
| 20260905113038 | 21 | 88 | 3.2 | 6.4 | 0.00 | 0.00 | 0.00 | 90 | 1012.7 |
| 20260905111541 | 21 | 107 | 1.6 | 8.0 | 0.00 | 0.00 | 0.00 | 90 | 1012.7 |
| 20260905110036 | 21 | 101 | 0.0 | 4.8 | 0.00 | 0.00 | 0.00 | 90 | 1012.6 |
| 20260905104532 | 21 | 79 | 4.8 | 12.9 | 0.00 | 0.00 | 0.00 | 92 | 1012.4 |
| 20260905103029 | 21 | 106 | 4.8 | 12.9 | 0.00 | 0.00 | 0.00 | 92 | 1012.4 |
| 20260905101539 | 21 | 132 | 4.8 | 12.9 | 0.00 | 0.00 | 0.00 | 92 | 1011.8 |
| 20260905100027 | 21 | 146 | 4.8 | 9.7 | 0.00 | 0.00 | 0.00 | 91 | 1011.7 |
| 20260905094525 | 21 | 113 | 1.6 | 8.0 | 0.00 | 0.00 | 0.00 | 91 | 1011.7 |
| 20260905093023 | 21 | 97 | 0.0 | 0.0 | 0.00 | 0.00 | 0.00 | 90 | 1011.6 |
| 20260905091522 | 21 | 134 | 0.0 | 0.0 | 0.00 | 0.00 | 0.00 | 91 | 1011.9 |
| 20260905090022 | 21 | 96 | 0.0 | 8.0 | 0.00 | 0.00 | 0.00 | 92 | 1012.0 |
| 20260905084620 | 21 | 103 | 0.0 | 6.4 | 0.00 | 0.00 | 0.00 | 92 | 1012.0 |
| 20260905083017 | 21 | 88 | 0.0 | 3.2 | 0.00 | 0.00 | 0.00 | 92 | 1012.1 |
| 20260905081517 | 21 | 98 | 0.0 | 4.8 | 0.00 | 0.00 | 0.00 | 92 | 1012.2 |
| 20260905080018 | 21 | 120 | 0.0 | 4.8 | 0.00 | 0.00 | 0.00 | 92 | 1012.2 |
| 20260905074516 | 21 | 107 | 0.0 | 1.6 | 0.00 | 0.00 | 0.00 | 91 | 1012.3 |
| 20260905073016 | 21 | 90 | 1.6 | 11.3 | 0.00 | 0.00 | 0.00 | 90 | 1012.3 |
| 20260905071511 | 21 | 118 | 0.0 | 4.8 | 0.00 | 0.00 | 0.00 | 89 | 1012.2 |
| 20260905070013 | 21 | 84 | 1.6 | 9.7 | 0.00 | 0.00 | 0.00 | 88 | 1012.0 |
| 20260905064511 | 21 | 66 | 0.0 | 0.0 | 0.00 | 0.00 | 0.00 | 87 | 1012.0 |
| 20260905063004 | 22 | 92 | 0.0 | 6.4 | 0.00 | 0.00 | 0.00 | 87 | 1011.8 |
| 20260905061502 | 21 | 67 | 0.0 | 0.0 | 0.00 | 0.00 | 0.00 | 87 | 1011.7 |
| 20260905060101 | 22 | 101 | 0.0 | 0.0 | 0.00 | 0.00 | 0.00 | 86 | 1011.8 |
| 20260905054557 | 22 | 115 | 0.0 | 3.2 | 0.00 | 0.00 | 0.00 | 84 | 1011.8 |
| 20260905053059 | 23 | 127 | 3.2 | 14.5 | 0.00 | 0.00 | 0.00 | 84 | 1011.6 |
| 20260905051553 | 23 | 66 | 0.0 | 8.0 | 0.00 | 0.00 | 0.00 | 83 | 1011.4 |
| 20260905050051 | 22 | 65 | 0.0 | 0.0 | 0.00 | 0.00 | 0.00 | 82 | 1011.3 |
| 20260905044550 | 23 | 5 | 0.0 | 0.0 | 0.00 | 0.00 | 0.00 | 83 | 1011.3 |
| 20260905043046 | 23 | 28 | 0.0 | 0.0 | 0.00 | 0.00 | 0.00 | 80 | 1011.3 |
| 20260905041550 | 23 | 5 | 0.0 | 3.2 | 0.00 | 0.00 | 0.00 | 80 | 1011.3 |
| 20260905040042 | 24 | 5 | 0.0 | 8.0 | 0.00 | 0.00 | 0.00 | 81 | 1011.1 |
| 20260905034541 | 24 | 24 | 0.0 | 0.0 | 0.00 | 0.00 | 0.00 | 80 | 1011.2 |
| 20260905033009 | 25 | 355 | 0.0 | 1.6 | 0.00 | 0.00 | 0.00 | 80 | 1011.2 |
| 20260905031506 | 25 | 360 | 0.0 | 4.8 | 0.00 | 0.00 | 0.00 | 79 | 1011.2 |
| 20260905030004 | 26 | 63 | 0.0 | 11.3 | 0.00 | 0.00 | 0.00 | 79 | 1011.1 |
| 20260905024601 | 26 | 127 | 0.0 | 6.4 | 0.00 | 0.00 | 0.00 | 81 | 1011.1 |
| 20260905023059 | 26 | 144 | 0.0 | 3.2 | 0.00 | 0.00 | 0.00 | 82 | 1010.8 |
| 20260905021557 | 26 | 92 | 0.0 | 1.6 | 0.00 | 0.00 | 0.00 | 81 | 1010.8 |
| 20260905014551 | 26 | 48 | 0.0 | 0.0 | 0.00 | 0.00 | 0.00 | 79 | 1010.5 |
| 20260905013047 | 27 | 85 | 0.0 | 4.8 | 0.00 | 0.00 | 0.00 | 80 | 1010.2 |
| 20260905011544 | 27 | 46 | 0.0 | 8.0 | 0.00 | 0.00 | 0.00 | 79 | 1010.0 |
| 20260905010040 | 28 | 315 | 0.0 | 4.8 | 0.00 | 0.00 | 0.00 | 79 | 1009.7 |
| 20260905004538 | 28 | 38 | 0.0 | 8.0 | 0.00 | 0.00 | 0.00 | 78 | 1009.4 |
| 20260905003032 | 28 | 74 | 0.0 | 8.0 | 0.00 | 0.00 | 0.00 | 77 | 1009.2 |
| 20260905001529 | 29 | 360 | 0.0 | 9.7 | 0.00 | 0.00 | 0.00 | 77 | 1009.2 |
| 20260905000026 | 30 | 5 | 0.0 | 6.4 | 0.00 | 0.00 | 0.00 | 74 | 1009.1 |